Almeria, Spain

9:17 AM CEST on September 27, 2016 (GMT +0200)
Almeria

Weather History for LEAM - November, 2012

Change the Weather History Date:

Saturday, November 24, 2012

  Actual Average Record
Temperature  
Mean Temperature 58 °F -  
Max Temperature 66 °F 63 °F 76 °F (2014)
Min Temperature 50 °F 50 °F 44 °F (1999)
Degree Days  
Heating Degree Days 7    
Growing Degree Days 8 (Base 50)    
Moisture  
Dew Point 54 °F    
Average Humidity 79    
Maximum Humidity 100    
Minimum Humidity 53    
Precipitation  
Precipitation 0.00 in - - ()
Sea Level Pressure  
Sea Level Pressure 30.12 in    
Wind  
Wind Speed 5 mph ()    
Max Wind Speed 10 mph    
Max Gust Speed -    
Visibility 6.8 miles    
Events      
Averages and records for this station are not official NWS values.
T = Trace of Precipitation, MM = Missing Value Source: Averaged Metar Reports

Daily Weather History Graph

Daily Weather History Graph

Search for Another Location

Airport or City:

Trip Planner

Search our weather history database for the weather conditions in past years. The results will help you decide how hot, cold, wet, or windy it might be!

Date:

Astronomy

Nov. 24, 2012 Rise Set
Actual Time 7:57 AM CET 5:55 PM CET
Civil Twilight 7:29 AM CET 6:23 PM CET
Nautical Twilight 6:57 AM CET 6:55 PM CET
Astronomical Twilight 6:26 AM CET 7:26 PM CET
Moon 3:28 PM CET (11/24) 4:04 AM CET (11/24)
Length of Visible Light 10h 54m
Length of Day
9h 57m
Waxing Gibbous, 85% of the Moon is Illuminated
Nov 24
Waxing Gibbous
Nov 28
Full
Dec 6
Last Quarter
Dec 13
New
Dec 20
First Quarter

Hourly Weather History & Observations

Time (CET) Temp. Dew Point Humidity Pressure Visibility Wind Dir Wind Speed Gust Speed Precip Events Conditions
1:00 AM 54 °F 51 °F 84% 30.18 in - NNW 4.6 mph - -  
5:00 AM 53.6 °F 50.0 °F 88% 30.12 in 6.2 mi NNW 9.2 mph - N/A   Partly Cloudy
5:30 AM 53.6 °F 50.0 °F 88% 30.12 in 6.2 mi NNW 9.2 mph - N/A   Partly Cloudy
6:00 AM 53.6 °F 50.0 °F 88% 30.12 in 6.2 mi NNW 5.8 mph - N/A   Partly Cloudy
6:30 AM 51.8 °F 50.0 °F 94% 30.12 in 6.2 mi NW 5.8 mph - N/A   Partly Cloudy
7:00 AM 51 °F 47 °F 80% 30.14 in 16 mi NW 10.4 mph - -   Scattered Clouds
7:00 AM 53.6 °F 48.2 °F 82% 30.12 in 6.2 mi NW 9.2 mph - N/A   Partly Cloudy
7:30 AM 53.6 °F 48.2 °F 82% 30.12 in 6.2 mi NNW 9.2 mph - N/A   Partly Cloudy
8:00 AM 53.6 °F 48.2 °F 82% 30.12 in 6.2 mi NNW 8.1 mph - N/A   Partly Cloudy
8:30 AM 53.6 °F 48.2 °F 82% 30.15 in 6.2 mi NNW 10.4 mph - N/A   Partly Cloudy
9:00 AM 55.4 °F 48.2 °F 77% 30.15 in 6.2 mi NNW 10.4 mph - N/A   Partly Cloudy
9:30 AM 59.0 °F 50.0 °F 72% 30.15 in 6.2 mi NNW 5.8 mph - N/A   Partly Cloudy
10:00 AM 60.8 °F 51.8 °F 72% 30.15 in 6.2 mi NNW 6.9 mph - N/A   Partly Cloudy
10:30 AM 64.4 °F 55.4 °F 73% 30.15 in 6.2 mi Variable 1.2 mph - N/A   Partly Cloudy
11:00 AM 66.2 °F 55.4 °F 68% 30.15 in 6.2 mi Calm Calm - N/A   Partly Cloudy
11:30 AM 66.2 °F 55.4 °F 68% 30.15 in 6.2 mi Calm Calm - N/A   Partly Cloudy
12:00 PM 66.2 °F 55.4 °F 68% 30.15 in 6.2 mi Variable 1.2 mph - N/A   Partly Cloudy
12:30 PM 66.2 °F 55.4 °F 68% 30.15 in 6.2 mi Variable 2.3 mph - N/A   Partly Cloudy
1:00 PM 66 °F 53 °F 53% 30.14 in 9 mi South 2.3 mph - -   Scattered Clouds
1:00 PM 66.2 °F 53.6 °F 64% 30.12 in 6.2 mi Variable 2.3 mph - N/A   Partly Cloudy
1:30 PM 66.2 °F 55.4 °F 68% 30.12 in 6.2 mi Variable 2.3 mph - N/A   Partly Cloudy
2:00 PM 66.2 °F 55.4 °F 68% 30.12 in 6.2 mi SSE 3.5 mph - N/A   Partly Cloudy
2:30 PM 66.2 °F 55.4 °F 68% 30.09 in 6.2 mi South 3.5 mph - N/A   Partly Cloudy
3:00 PM 66.2 °F 55.4 °F 68% 30.09 in 6.2 mi South 3.5 mph - N/A   Partly Cloudy
3:30 PM 66.2 °F 55.4 °F 68% 30.09 in 6.2 mi South 4.6 mph - N/A   Partly Cloudy
4:00 PM 66.2 °F 57.2 °F 73% 30.09 in - South 3.5 mph - N/A   Clear
4:30 PM 64.4 °F 57.2 °F 77% 30.09 in - South 3.5 mph - N/A   Clear
5:00 PM 64.4 °F 57.2 °F 77% 30.09 in - Variable 2.3 mph - N/A   Clear
5:30 PM 64.4 °F 57.2 °F 77% 30.09 in - Variable 2.3 mph - N/A   Clear
6:00 PM 62.6 °F 59.0 °F 88% 30.09 in - Calm Calm - N/A   Clear
6:30 PM 62.6 °F 59.0 °F 88% 30.09 in - Calm Calm - N/A   Clear
7:00 PM 60 °F 55 °F 80% 30.12 in 9 mi North 2.3 mph - -   Clear
7:00 PM 60.8 °F 57.2 °F 88% 30.09 in - Variable 1.2 mph - N/A   Clear
7:30 PM 60.8 °F 57.2 °F 88% 30.09 in - Variable 2.3 mph - N/A   Clear
8:00 PM 60.8 °F 57.2 °F 88% 30.12 in - Variable 2.3 mph - N/A   Clear
8:30 PM 59.0 °F 57.2 °F 94% 30.12 in - North 3.5 mph - N/A   Clear
9:00 PM 59.0 °F 57.2 °F 94% 30.12 in - North 3.5 mph - N/A   Clear
9:30 PM 59.0 °F 57.2 °F 94% 30.12 in - North 3.5 mph - N/A   Clear
10:00 PM 57.2 °F 57.2 °F 100% 30.12 in - North 3.5 mph - N/A   Clear
10:30 PM 59.0 °F 57.2 °F 94% 30.12 in - Variable 2.3 mph - N/A   Clear